TimeEST,TemperatureF,Dew PointF,Humidity,Sea Level PressureIn,VisibilityMPH,Wind Direction,Wind SpeedMPH,Gust SpeedMPH,PrecipitationIn,Events,Conditions,WindDirDegrees,DateUTC
12:53 AM,19.9,16.0,85,29.95,10.0,North,5.8,-,N/A,,Overcast,350,2013-02-25 05:53:00
1:53 AM,19.0,17.1,92,29.96,10.0,NNW,4.6,-,N/A,,Overcast,340,2013-02-25 06:53:00
2:53 AM,19.0,15.1,85,29.96,10.0,North,3.5,-,N/A,,Clear,10,2013-02-25 07:53:00
3:53 AM,16.0,14.0,92,29.98,6.0,North,3.5,-,N/A,,Clear,360,2013-02-25 08:53:00
4:53 AM,15.1,12.9,91,30.00,10.0,North,4.6,-,N/A,,Clear,350,2013-02-25 09:53:00
5:34 AM,14.0,12.2,93,29.97,4.0,North,4.6,-,N/A,,Scattered Clouds,360,2013-02-25 10:34:00
5:38 AM,14.0,12.2,93,29.97,1.5,North,4.6,-,N/A,,Mostly Cloudy,360,2013-02-25 10:38:00
5:41 AM,14.0,12.2,93,29.97,0.8,North,4.6,-,N/A,,Mist,360,2013-02-25 10:41:00
5:53 AM,15.1,12.9,91,30.03,0.2,North,4.6,-,N/A,Fog,Light Freezing Fog,360,2013-02-25 10:53:00
6:45 AM,15.8,12.2,86,30.00,2.0,North,6.9,-,N/A,,Mostly Cloudy,350,2013-02-25 11:45:00
6:49 AM,15.8,14.0,93,30.00,6.0,North,5.8,-,N/A,,Scattered Clouds,350,2013-02-25 11:49:00
6:53 AM,16.0,14.0,92,30.05,7.0,North,5.8,-,N/A,,Scattered Clouds,360,2013-02-25 11:53:00
7:53 AM,17.1,12.9,84,30.06,10.0,NNW,6.9,-,N/A,,Clear,340,2013-02-25 12:53:00
8:53 AM,19.9,15.1,81,30.07,10.0,North,5.8,-,N/A,,Clear,350,2013-02-25 13:53:00
9:53 AM,25.0,14.0,63,30.08,10.0,North,3.5,-,N/A,,Clear,350,2013-02-25 14:53:00
10:53 AM,25.0,16.0,69,30.09,10.0,Calm,Calm,-,N/A,,Clear,0,2013-02-25 15:53:00
11:53 AM,30.0,9.0,41,30.09,10.0,Calm,Calm,-,N/A,,Clear,0,2013-02-25 16:53:00
12:53 PM,32.0,7.0,35,30.09,10.0,Calm,Calm,-,N/A,,Clear,0,2013-02-25 17:53:00
1:53 PM,32.0,8.1,37,30.09,10.0,Calm,Calm,-,N/A,,Clear,0,2013-02-25 18:53:00
2:53 PM,32.0,14.0,48,30.06,10.0,Calm,Calm,-,N/A,,Clear,0,2013-02-25 19:53:00
3:53 PM,33.1,17.1,52,30.11,10.0,West,3.5,-,N/A,,Clear,280,2013-02-25 20:53:00
4:53 PM,30.9,17.1,57,30.13,10.0,West,4.6,-,N/A,,Clear,260,2013-02-25 21:53:00
5:53 PM,30.0,16.0,56,30.15,10.0,NW,5.8,-,N/A,,Clear,310,2013-02-25 22:53:00
6:53 PM,30.0,9.0,41,30.17,10.0,WNW,3.5,-,N/A,,Clear,300,2013-02-25 23:53:00
7:53 PM,26.1,12.0,55,30.18,10.0,NW,4.6,-,N/A,,Clear,320,2013-02-26 00:53:00
8:53 PM,26.1,12.0,55,30.18,10.0,NW,4.6,-,N/A,,Clear,320,2013-02-26 01:53:00
9:53 PM,23.0,14.0,68,30.18,10.0,NW,6.9,-,N/A,,Clear,320,2013-02-26 02:53:00
10:53 PM,23.0,14.0,68,30.18,10.0,NW,5.8,-,N/A,,Clear,320,2013-02-26 03:53:00
11:53 PM,21.9,14.0,72,30.20,10.0,NW,5.8,-,N/A,,Clear,310,2013-02-26 04:53:00